STARLINK-4669 (53748 NORAD) Tracking and Keplerian Element Data

This shows tracking and keplerian element data for the satellite.

Feedback or suggestion? Click here.




ElementValue
Catalog53748
NameSTARLINK-4669
Epoch Orbit1199
Epoch Day325.33334491
Epoch Year2022
RAAN270.8426
Inclination53.2152
Eccentricity0.0002403
Argument of Perigee34.3908
Mean Anonmoly344.4686
Mean Motion15.08832577
Decay Rate0.00023408
L11 53748U 22107BA 22325.33334491 .00023408 00000+0 14842-2 0 9990
L22 53748 53.2152 270.8426 0002403 34.3908 344.4686 15.08832577 11993



Live tracking and technical data element details for STARLINK-4669 (NORAD 53748). STARLINK-4669 can be tracked NOW for your location showing map with azimuth and elevation plus other details from your city location.







IsCatalogInMostPopularTable: catalog: 53748, numindb: -1

Insert: records affected: 1


GetName: 53748 STARLINK-4669

Hit Count: inserted at: Thu, 08 Dec 2022 09:55:21 GMT